This is the latest recevied weather packets stored in our database for station/object KI4NG. If no packets are shown the sender has not sent any weather packets the latest 10 day(s).
| Time | Temp. | Humidity | Pressure | Rain* | Wind** | Luminosity | Snow |
|---|---|---|---|---|---|---|---|
| 1777910449 | 19.44° C | 60% | 1015.9 hPa | 0 mm | - | 760 W/m² | - |
| 1777910146 | 18.89° C | 60% | 1016 hPa | 0 mm | - | 656 W/m² | - |
| 1777909844 | 18.89° C | 62% | 1016 hPa | 0 mm | - | 679 W/m² | - |
| 1777909540 | 18.89° C | 62% | 1016.1 hPa | 0 mm | - | 761 W/m² | - |
| 1777909237 | 18.33° C | 60% | 1016 hPa | 0 mm | - | 787 W/m² | - |
| 1777908935 | 18.33° C | 62% | 1016.1 hPa | 0 mm | - | 782 W/m² | - |
| 1777908633 | 18.33° C | 60% | 1015.9 hPa | 0 mm | - | 806 W/m² | - |
| 1777908329 | 18.33° C | 61% | 1016.4 hPa | 0 mm | - | 773 W/m² | - |
| 1777908026 | 17.78° C | 61% | 1016.4 hPa | 0 mm | - | 682 W/m² | - |
| 1777907722 | 17.78° C | 60% | 1016.4 hPa | 0 mm | - | 610 W/m² | - |
| 1777907416 | 17.78° C | 59% | 1016.5 hPa | 0 mm | - | 647 W/m² | - |
| 1777907114 | 17.78° C | 60% | 1016.5 hPa | 0 mm | - | 571 W/m² | - |
| 1777906812 | 17.22° C | 60% | 1016.7 hPa | 0 mm | - | 581 W/m² | - |
| 1777906509 | 17.78° C | 60% | 1016.5 hPa | 0 mm | - | 540 W/m² | - |
| 1777906204 | 17.22° C | 61% | 1016.6 hPa | 0 mm | - | 564 W/m² | - |
| 1777905901 | 17.22° C | 61% | 1016.9 hPa | 0 mm | - | 578 W/m² | - |
| 1777905598 | 16.67° C | 61% | 1017 hPa | 0 mm | - | 524 W/m² | - |
| 1777905295 | 16.67° C | 61% | 1016.8 hPa | 0 mm | - | 429 W/m² | - |
| 1777904992 | 16.67° C | 61% | 1016.6 hPa | 0 mm | - | 386 W/m² | - |
| 1777904690 | 16.67° C | 61% | 1016.6 hPa | 0 mm | - | 387 W/m² | - |
| 1777904386 | 16.67° C | 60% | 1016.5 hPa | 0 mm | - | 419 W/m² | - |
| 1777904083 | 16.67° C | 63% | 1016.7 hPa | 0 mm | - | 418 W/m² | - |
| 1777903780 | 16.11° C | 67% | 1016.7 hPa | 0 mm | - | 412 W/m² | - |
| 1777903476 | 16.11° C | 65% | 1016.7 hPa | 0 mm | - | 435 W/m² | - |
| 1777903172 | 16.11° C | 64% | 1016.9 hPa | 0 mm | - | 354 W/m² | - |
* Rain latest hour (hover to see other rain measurements)
** Current wind speed in m/s (hover to see current wind gust speed)